Change the Weather History Date:

Sunday, January 6, 2013

  Actual Average Record
Temperature  
Mean Temperature 30 °F -  
Max Temperature 39 °F 37 °F 62 °F (2007)
Min Temperature 21 °F 18 °F -5 °F (1981)
Degree Days  
Heating Degree Days 35    
Moisture  
Dew Point 26 °F    
Average Humidity 81    
Maximum Humidity 93    
Minimum Humidity 67    
Precipitation  
Precipitation 0.01 in - - ()
Sea Level Pressure  
Sea Level Pressure 30.06 in    
Wind  
Wind Speed 3 mph (SW)    
Max Wind Speed 17 mph    
Max Gust Speed 22 mph    
Visibility 7 miles    
Events Snow    
Averages and records for this station are not official NWS values.
T = Trace of Precipitation, MM = Missing Value Source: NWS Daily Summary

Daily Weather History Graph

Daily Weather History Graph

Search for Another Location

Airport or City:

Trip Planner

Search our weather history database for the weather conditions in past years. The results will help you decide how hot, cold, wet, or windy it might be!

Date:

Astronomy

Jan. 06, 2013 Rise Set
Actual Time 7:10 AM EST 4:27 PM EST
Civil Twilight 6:39 AM EST 4:58 PM EST
Nautical Twilight 6:04 AM EST 5:33 PM EST
Astronomical Twilight 5:30 AM EST 6:07 PM EST
Moon 1:19 AM EST (1/6) 11:54 AM EST (1/6)
Length of Visible Light 10h 19m
Length of Day
9h 16m
Waning Crescent, 33% of the Moon is Illuminated
Jan 6
Waning Crescent
Jan 11
New
Jan 18
First Quarter
Jan 26
Full
Feb 3
Last Quarter

Hourly Weather History & Observations

Time (EST) Temp. Windchill Dew Point Humidity Pressure Visibility Wind Dir Wind Speed Gust Speed Precip Events Conditions
12:52 AM 21.9 °F - 17.1 °F 82% 30.19 in 10.0 mi Calm Calm - N/A   Clear
1:52 AM 25.0 °F - 19.0 °F 78% 30.22 in 10.0 mi Calm Calm - N/A   Clear
2:52 AM 26.1 °F - 21.0 °F 81% 30.20 in 10.0 mi Calm Calm - N/A   Mostly Cloudy
3:52 AM 28.0 °F - 21.9 °F 78% 30.18 in 10.0 mi Calm Calm - N/A   Overcast
4:52 AM 28.9 °F - 21.9 °F 75% 30.13 in 10.0 mi Calm Calm - N/A   Overcast
5:26 AM 28.4 °F - 21.2 °F 74% 30.13 in 4.0 mi Calm Calm - 0.00 in Snow Light Snow
5:38 AM 28.4 °F - 23.0 °F 80% 30.12 in 2.0 mi Calm Calm - 0.00 in Snow Light Snow
5:52 AM 28.0 °F - 23.0 °F 81% 30.12 in 2.0 mi Calm Calm - 0.00 in Snow Light Snow
6:02 AM 28.4 °F - 23.0 °F 80% 30.11 in 1.5 mi Calm Calm - 0.00 in Snow Light Snow
6:17 AM 28.4 °F - 24.8 °F 86% 30.11 in 2.5 mi Calm Calm - 0.00 in Snow Light Snow
6:52 AM 28.9 °F 25.2 °F 26.1 °F 89% 30.11 in 1.5 mi South 3.5 mph - 0.01 in Snow Light Snow
7:09 AM 30.2 °F 25.4 °F 26.6 °F 86% 30.10 in 2.0 mi SSW 4.6 mph - 0.00 in Snow Light Snow
7:23 AM 30.2 °F 25.4 °F 26.6 °F 86% 30.09 in 4.0 mi SSW 4.6 mph - 0.00 in Snow Light Snow
7:52 AM 30.9 °F 25.2 °F 28.0 °F 89% 30.09 in 6.0 mi SSW 5.8 mph - 0.00 in   Overcast
8:44 AM 32.0 °F 24.8 °F 30.2 °F 93% 30.09 in 7.0 mi SW 8.1 mph - N/A   Overcast
8:52 AM 33.1 °F 26.1 °F 30.0 °F 89% 30.09 in 7.0 mi SW 8.1 mph - N/A   Overcast
9:52 AM 34.0 °F 27.2 °F 30.0 °F 85% 30.08 in 6.0 mi SW 8.1 mph - N/A   Partly Cloudy
10:52 AM 37.0 °F 28.5 °F 28.9 °F 73% 30.05 in 9.0 mi SW 13.8 mph 21.9 mph N/A   Clear
11:35 AM 37.4 °F 29.3 °F 30.2 °F 75% 30.01 in 10.0 mi SW 12.7 mph - N/A   Mostly Cloudy
11:52 AM 37.9 °F 29.6 °F 28.9 °F 70% 30.00 in 10.0 mi WSW 13.8 mph - N/A   Mostly Cloudy
12:52 PM 37.9 °F 28.5 °F 30.0 °F 73% 29.97 in 10.0 mi WSW 17.3 mph - N/A   Mostly Cloudy
12:59 PM 39.2 °F 31.2 °F 30.2 °F 70% 29.96 in 10.0 mi SW 13.8 mph 21.9 mph N/A   Scattered Clouds
1:52 PM 39.0 °F 32.3 °F 30.0 °F 70% 29.96 in 10.0 mi WSW 10.4 mph - N/A   Clear
2:52 PM 39.9 °F 33.9 °F 30.0 °F 68% 29.96 in 10.0 mi WSW 9.2 mph - N/A   Clear
3:52 PM 39.0 °F 34.8 °F 28.9 °F 67% 29.95 in 10.0 mi WSW 5.8 mph - N/A   Clear
4:52 PM 33.1 °F - 26.1 °F 75% 29.96 in 10.0 mi Calm Calm - N/A   Clear
5:52 PM 28.9 °F - 24.1 °F 82% 29.97 in 10.0 mi Calm Calm - N/A   Clear
6:52 PM 27.0 °F - 24.1 °F 89% 29.98 in 9.0 mi Calm Calm - N/A   Clear
7:52 PM 27.0 °F - 24.1 °F 89% 29.99 in 7.0 mi Calm Calm - N/A   Scattered Clouds
8:52 PM 26.1 °F - 23.0 °F 88% 29.98 in 7.0 mi Calm Calm - N/A   Overcast
9:52 PM 27.0 °F - 24.1 °F 89% 29.98 in 8.0 mi Calm Calm - N/A   Mostly Cloudy
10:52 PM 28.0 °F - 26.1 °F 92% 29.99 in 7.0 mi Calm Calm - N/A   Overcast
11:52 PM 28.9 °F - 26.1 °F 89% 29.97 in 8.0 mi Calm Calm - N/A   Overcast